FW5335 Weather Reports


Display with metric or nautical units.
time (UTC)temp
F
wind
direction
speed
MPH
gust
MPH
rain 1hr
in
rain 24hr
in
rain mn
in
humidity
%
barometer
mb
20260510150518 56 45 9.0 15.0 0.00 0.00 0.00 64 1016.5
20260510145519 56 68 8.0 15.0 0.00 0.00 0.00 64 1016.8
20260510144519 57 0 8.0 19.0 0.00 0.00 0.00 62 1016.9
20260510143518 57 45 9.0 17.0 0.00 0.00 0.00 62 1016.9
20260510142523 57 45 8.0 16.0 0.00 0.00 0.00 63 1017.0
20260510141518 57 45 9.0 16.0 0.00 0.00 0.00 62 1017.2
20260510140533 58 45 9.0 19.0 0.00 0.00 0.00 62 1017.3
20260510135558 58 45 11.0 19.0 0.00 0.00 0.00 62 1017.3
20260510134517 59 23 10.0 18.0 0.00 0.00 0.00 60 1017.5
20260510133518 59 23 9.0 16.0 0.00 0.00 0.00 60 1017.4
20260510132518 60 23 9.0 18.0 0.00 0.00 0.00 59 1017.7
20260510131520 60 23 9.0 17.0 0.00 0.00 0.00 59 1017.5
20260510130518 61 68 11.0 18.0 0.00 0.00 0.00 57 1017.7
20260510125519 61 23 8.0 17.0 0.00 0.00 0.00 61 1017.7
20260510124521 60 23 10.0 17.0 0.00 0.00 0.00 61 1017.7
20260510123518 60 0 11.0 19.0 0.00 0.00 0.00 60 1017.7
20260510122518 61 45 10.0 19.0 0.00 0.00 0.00 60 1017.9
20260510121538 61 23 11.0 20.0 0.00 0.00 0.00 60 1017.6
20260510120518 60 0 8.0 15.0 0.00 0.00 0.00 62 1017.7
20260510115538 60 23 10.0 21.0 0.00 0.00 0.00 61 1017.9
20260510114518 61 45 8.0 15.0 0.00 0.00 0.00 60 1017.9
20260510113518 62 23 10.0 20.0 0.00 0.00 0.00 58 1018.3
20260510112543 62 45 9.0 15.0 0.00 0.00 0.00 58 1018.3
20260510111520 61 45 10.0 19.0 0.00 0.00 0.00 59 1018.4
20260510110521 63 68 10.0 19.0 0.00 0.00 0.00 57 1018.4
20260510105520 62 45 11.0 20.0 0.00 0.00 0.00 57 1018.6
20260510104542 62 45 10.0 18.0 0.00 0.00 0.00 60 1018.6
20260510103540 62 68 9.0 19.0 0.00 0.00 0.00 60 1018.6
20260510102518 61 68 11.0 19.0 0.00 0.00 0.00 58 1018.9
20260510101517 61 0 9.0 17.0 0.00 0.00 0.00 60 1018.6
20260510100516 61 45 10.0 17.0 0.00 0.00 0.00 59 1018.6
20260510095518 60 68 11.0 21.0 0.00 0.00 0.00 61 1018.8
20260510094538 59 68 12.0 22.0 0.00 0.00 0.00 62 1018.6
20260510093516 57 45 12.0 22.0 0.00 0.00 0.00 62 1018.7
20260510092516 56 45 11.0 24.0 0.00 0.00 0.00 65 1018.5
20260510091522 58 45 11.0 20.0 0.00 0.00 0.00 62 1018.5
20260510090518 58 68 9.0 23.0 0.00 0.00 0.00 65 1018.6
20260510085540 57 68 11.0 20.0 0.00 0.00 0.00 65 1018.8
20260510084520 57 45 7.0 17.0 0.00 0.00 0.00 66 1019.1
20260510083518 57 45 8.0 16.0 0.00 0.00 0.00 66 1019.0
20260510082519 56 68 11.0 19.0 0.00 0.00 0.00 68 1019.0
20260510081523 54 68 8.0 19.0 0.00 0.00 0.00 71 1018.8
20260510080540 54 45 9.0 16.0 0.00 0.00 0.00 70 1018.8
20260510075521 53 45 9.0 18.0 0.00 0.00 0.00 71 1019.0
20260510074555 53 45 11.0 20.0 0.00 0.00 0.00 72 1018.9
20260510073519 53 23 7.0 15.0 0.00 0.00 0.00 72 1018.8
20260510072523 52 68 8.0 13.0 0.00 0.00 0.00 73 1018.8
20260510071525 52 68 11.0 21.0 0.00 0.00 0.00 73 1018.6
20260510070520 52 45 10.0 19.0 0.00 0.00 0.00 74 1018.5
20260510065524 51 23 8.0 16.0 0.00 0.00 0.00 75 1018.6
20260510064520 51 68 7.0 15.0 0.00 0.00 0.00 76 1018.4
20260510063520 51 45 8.0 16.0 0.00 0.00 0.00 77 1018.5
20260510062520 50 45 7.0 17.0 0.00 0.00 0.00 77 1018.2
20260510061520 50 45 7.0 15.0 0.00 0.00 0.00 78 1018.2
20260510060519 49 45 6.0 14.0 0.00 0.00 0.00 79 1018.3
20260510055520 49 23 5.0 10.0 0.00 0.00 0.00 79 1018.3
20260510054520 49 68 3.0 6.0 0.00 0.00 0.00 79 1018.3
20260510053520 49 68 4.0 11.0 0.00 0.00 0.00 79 1018.4
20260510052519 48 45 4.0 11.0 0.00 0.00 0.00 80 1018.4
20260510051530 48 45 4.0 11.0 0.00 0.00 0.00 80 1018.3
20260510050519 48 23 5.0 11.0 0.00 0.00 0.00 80 1018.4
20260510045520 48 68 5.0 12.0 0.00 0.00 0.00 80 1018.3
20260510044519 48 45 5.0 12.0 0.00 0.00 0.00 80 1018.3
20260510043540 48 45 5.0 13.0 0.00 0.00 0.00 80 1018.2
20260510042524 48 45 8.0 13.0 0.00 0.00 0.00 79 1018.1
20260510041519 48 45 5.0 13.0 0.00 0.00 0.00 78 1018.3
20260510040523 48 45 5.0 10.0 0.00 0.00 0.00 77 1018.4
20260510035518 49 45 4.0 11.0 0.00 0.00 0.00 76 1018.3
20260510034524 49 45 6.0 13.0 0.00 0.00 0.00 75 1018.2
20260510033519 49 45 6.0 15.0 0.00 0.00 0.00 75 1018.4
20260510032519 50 45 6.0 12.0 0.00 0.00 0.00 74 1018.4
20260510031519 50 45 5.0 10.0 0.00 0.00 0.00 73 1018.4
20260510030521 50 45 4.0 9.0 0.00 0.00 0.00 73 1018.3
20260510025524 50 45 4.0 9.0 0.00 0.00 0.00 74 1018.4
20260510024519 50 23 3.0 8.0 0.00 0.00 0.00 74 1018.5
20260510023519 50 45 5.0 9.0 0.00 0.00 0.00 73 1018.5
20260510022539 51 45 4.0 9.0 0.00 0.00 0.00 72 1018.7
20260510021519 51 23 4.0 10.0 0.00 0.00 0.00 71 1018.5
20260510020519 51 23 4.0 9.0 0.00 0.00 0.00 71 1018.4
20260510015520 52 45 5.0 12.0 0.00 0.00 0.00 71 1018.1
20260510014519 52 23 5.0 10.0 0.00 0.00 0.00 70 1018.2
20260510013520 52 45 4.0 10.0 0.00 0.00 0.00 70 1018.3
20260510012519 53 68 4.0 10.0 0.00 0.00 0.00 71 1018.2
20260510011519 53 45 6.0 13.0 0.00 0.00 0.00 72 1018.1
20260510010539 53 45 5.0 11.0 0.00 0.00 0.00 74 1018.0
20260510005539 53 68 6.0 14.0 0.00 0.00 0.00 76 1018.1
20260510004520 54 45 4.0 10.0 0.00 0.00 0.00 77 1018.1
20260510003545 54 45 5.0 11.0 0.00 0.00 0.00 78 1018.2
20260510002524 54 45 4.0 7.0 0.00 0.00 0.00 78 1018.3
20260510001519 54 68 4.0 9.0 0.00 0.00 0.00 78 1018.4
20260510000519 55 45 4.0 9.0 0.00 0.00 0.00 78 1018.4
20260509235519 55 68 4.0 11.0 0.00 0.00 0.00 77 1018.1
20260509234520 55 68 3.0 9.0 0.00 0.00 0.00 77 1018.1
20260509233521 56 23 4.0 8.0 0.00 0.00 0.00 76 1018.1
20260509232519 56 68 4.0 9.0 0.00 0.00 0.00 76 1018.2
20260509231619 56 68 4.0 10.0 0.00 0.00 0.00 75 1018.1
20260509230520 56 45 3.0 10.0 0.00 0.00 0.00 75 1018.0
20260509225520 57 23 4.0 10.0 0.00 0.00 0.00 75 1018.0
20260509224520 57 23 4.0 7.0 0.00 0.00 0.00 74 1017.8
20260509223520 57 23 5.0 12.0 0.00 0.00 0.00 74 1017.8
20260509222519 57 23 6.0 12.0 0.00 0.00 0.00 74 1017.9
20260509221519 57 23 7.0 14.0 0.00 0.00 0.00 75 1017.7
20260509220550 57 45 4.0 13.0 0.00 0.00 0.00 75 1017.8
20260509215540 57 23 5.0 11.0 0.00 0.00 0.00 74 1017.6
20260509214519 58 23 8.0 17.0 0.00 0.00 0.00 74 1017.7
20260509213542 58 23 7.0 15.0 0.00 0.00 0.00 73 1017.8
20260509212522 58 23 9.0 17.0 0.00 0.00 0.00 73 1017.6
20260509211542 59 23 7.0 15.0 0.00 0.00 0.00 72 1017.6
20260509210519 59 23 7.0 15.0 0.00 0.00 0.00 72 1017.4
20260509205519 60 23 9.0 16.0 0.00 0.00 0.00 70 1017.2
20260509204519 60 23 9.0 17.0 0.00 0.00 0.00 69 1017.2
20260509203539 61 23 8.0 15.0 0.00 0.00 0.00 65 1017.1
20260509202519 61 0 6.0 13.0 0.00 0.00 0.00 58 1017.1
20260509201539 62 0 7.0 12.0 0.00 0.00 0.00 58 1017.2
20260509200519 62 0 5.0 11.0 0.00 0.00 0.00 58 1017.0
20260509195519 62 0 4.0 9.0 0.00 0.00 0.00 58 1016.7
20260509194519 63 0 3.0 5.0 0.00 0.00 0.00 57 1016.7
20260509193518 63 0 5.0 9.0 0.00 0.00 0.00 56 1016.7
20260509192519 64 0 6.0 10.0 0.00 0.00 0.00 56 1016.7
20260509191519 64 0 5.0 9.0 0.00 0.00 0.00 56 1016.7
20260509190519 65 0 5.0 9.0 0.00 0.00 0.00 55 1016.7
20260509185548 65 0 7.0 12.0 0.00 0.00 0.00 54 1016.6
20260509184518 66 0 6.0 11.0 0.00 0.00 0.00 53 1016.7
20260509183519 66 45 4.0 9.0 0.00 0.00 0.00 50 1016.7
20260509182519 67 45 6.0 10.0 0.00 0.00 0.00 50 1016.6
20260509181518 67 23 5.0 13.0 0.00 0.00 0.00 49 1016.3
20260509180519 68 23 6.0 11.0 0.00 0.00 0.00 47 1016.5
20260509175518 68 0 5.0 12.0 0.00 0.00 0.00 48 1016.4
20260509174519 68 23 5.0 10.0 0.00 0.00 0.00 49 1016.1
20260509173521 68 68 7.0 13.0 0.00 0.00 0.00 48 1016.2
20260509172518 69 23 6.0 13.0 0.00 0.00 0.00 47 1016.1
20260509171519 69 45 5.0 12.0 0.00 0.00 0.00 47 1016.2
20260509170519 69 0 8.0 16.0 0.00 0.00 0.00 47 1016.6
20260509165519 69 0 7.0 11.0 0.00 0.00 0.00 47 1016.5
20260509165132 69 45 6.0 12.0 0.00 0.00 0.00 47 1016.4
20260509164519 70 23 6.0 15.0 0.00 0.00 0.00 48 1016.4
20260509163518 70 45 5.0 10.0 0.00 0.00 0.00 48 1016.5
20260509162516 69 0 5.0 14.0 0.00 0.00 0.00 47 1016.5
20260509161518 69 45 5.0 11.0 0.00 0.00 0.00 48 1016.6
20260509160518 69 0 6.0 11.0 0.00 0.00 0.00 48 1016.6
20260509155518 68 23 4.0 9.0 0.00 0.00 0.00 50 1016.7
20260509154518 69 45 7.0 14.0 0.00 0.00 0.00 47 1016.8
20260509153519 68 23 5.0 11.0 0.00 0.00 0.00 51 1017.0
20260509152517 68 68 4.0 10.0 0.00 0.00 0.00 51 1017.0
20260509151518 68 68 5.0 11.0 0.00 0.00 0.00 52 1016.9